| time (UTC) | temp F | wind direction | speed MPH | gust MPH | rain 1hr in | rain 24hr in | rain mn in | humidity % | barometer mb |
| 20260905194551 | 98 | 160 | 2.0 | 7.0 | 0.00 | 0.10 | 0.10 | 45 | 1010.1 |
| 20260905193049 | 97 | 223 | 1.0 | 5.0 | 0.00 | 0.10 | 0.10 | 43 | 1010.4 |
| 20260905191546 | 97 | 149 | 2.0 | 8.0 | 0.00 | 0.10 | 0.10 | 42 | 1010.7 |
| 20260905190047 | 96 | 163 | 1.0 | 7.0 | 0.00 | 0.10 | 0.10 | 44 | 1010.9 |
| 20260905184540 | 95 | 105 | 2.0 | 8.0 | 0.00 | 0.10 | 0.10 | 43 | 1011.1 |
| 20260905183036 | 95 | 184 | 4.0 | 6.0 | 0.00 | 0.10 | 0.10 | 45 | 1011.2 |
| 20260905181536 | 95 | 121 | 2.0 | 6.0 | 0.00 | 0.10 | 0.10 | 42 | 1011.6 |
| 20260905180048 | 95 | 161 | 2.0 | 6.0 | 0.00 | 0.10 | 0.10 | 45 | 1011.6 |
| 20260905174533 | 94 | 171 | 2.0 | 8.0 | 0.00 | 0.10 | 0.10 | 45 | 1011.9 |
| 20260905173031 | 94 | 161 | 2.0 | 9.0 | 0.00 | 0.10 | 0.10 | 46 | 1011.9 |
| 20260905171545 | 93 | 209 | 4.0 | 6.0 | 0.00 | 0.10 | 0.10 | 46 | 1012.0 |
| 20260905170024 | 92 | 170 | 3.0 | 8.0 | 0.00 | 0.10 | 0.10 | 50 | 1012.2 |
| 20260905164521 | 91 | 153 | 3.0 | 8.0 | 0.00 | 0.10 | 0.10 | 49 | 1012.4 |
| 20260905163018 | 90 | 160 | 5.0 | 10.0 | 0.00 | 0.10 | 0.10 | 53 | 1012.9 |
| 20260905161523 | 90 | 151 | 1.0 | 6.0 | 0.00 | 0.10 | 0.10 | 55 | 1013.0 |
| 20260905160011 | 89 | 263 | 2.0 | 6.0 | 0.00 | 0.10 | 0.10 | 56 | 1012.8 |
| 20260905154508 | 88 | 117 | 2.0 | 7.0 | 0.00 | 0.10 | 0.10 | 56 | 1012.9 |
| 20260905153004 | 87 | 80 | 2.0 | 8.0 | 0.00 | 0.10 | 0.10 | 57 | 1013.2 |
| 20260905151601 | 86 | 138 | 3.0 | 5.0 | 0.00 | 0.10 | 0.10 | 57 | 1013.3 |
| 20260905150055 | 85 | 136 | 2.0 | 7.0 | 0.00 | 0.10 | 0.10 | 59 | 1013.1 |
| 20260905144552 | 84 | 133 | 4.0 | 8.0 | 0.00 | 0.10 | 0.10 | 61 | 1013.4 |
| 20260905143048 | 83 | 167 | 4.0 | 7.0 | 0.00 | 0.10 | 0.10 | 63 | 1013.6 |
| 20260905141545 | 83 | 163 | 3.0 | 10.0 | 0.00 | 0.10 | 0.10 | 66 | 1013.6 |
| 20260905140040 | 81 | 131 | 3.0 | 9.0 | 0.02 | 0.10 | 0.10 | 70 | 1013.8 |
| 20260905134537 | 79 | 132 | 0.0 | 3.0 | 0.02 | 0.10 | 0.10 | 79 | 1013.8 |
| 20260905133036 | 78 | 104 | 1.0 | 10.0 | 0.02 | 0.10 | 0.10 | 79 | 1014.2 |
| 20260905131531 | 78 | 19 | 2.0 | 5.0 | 0.02 | 0.10 | 0.10 | 81 | 1014.2 |
| 20260905130028 | 77 | 32 | 3.0 | 8.0 | 0.00 | 0.08 | 0.08 | 85 | 1014.6 |
| 20260905124527 | 77 | 360 | 2.0 | 8.0 | 0.00 | 0.08 | 0.08 | 87 | 1014.0 |
| 20260905123024 | 77 | 202 | 1.0 | 2.0 | 0.00 | 0.08 | 0.08 | 87 | 1013.3 |
| 20260905121521 | 76 | 135 | 0.0 | 0.0 | 0.00 | 0.08 | 0.08 | 87 | 1012.9 |
| 20260905120033 | 76 | 136 | 0.0 | 0.0 | 0.00 | 0.08 | 0.08 | 87 | 1012.8 |
| 20260905114514 | 76 | 136 | 0.0 | 1.0 | 0.00 | 0.08 | 0.08 | 87 | 1012.8 |
| 20260905113014 | 76 | 134 | 0.0 | 3.0 | 0.00 | 0.08 | 0.08 | 87 | 1012.5 |
| 20260905111510 | 76 | 128 | 1.0 | 3.0 | 0.00 | 0.08 | 0.08 | 87 | 1012.6 |
| 20260905110017 | 76 | 128 | 1.0 | 6.0 | 0.00 | 0.08 | 0.08 | 87 | 1012.1 |
| 20260905104509 | 76 | 30 | 2.0 | 6.0 | 0.00 | 0.08 | 0.08 | 86 | 1011.8 |
| 20260905103016 | 76 | 314 | 0.0 | 0.0 | 0.01 | 0.08 | 0.08 | 86 | 1011.3 |
| 20260905101506 | 77 | 314 | 0.0 | 0.0 | 0.01 | 0.08 | 0.08 | 86 | 1011.4 |
| 20260905100004 | 77 | 314 | 0.0 | 0.0 | 0.01 | 0.08 | 0.08 | 85 | 1011.5 |
| 20260905094503 | 77 | 314 | 0.0 | 0.0 | 0.01 | 0.08 | 0.08 | 85 | 1011.5 |
| 20260905093003 | 77 | 314 | 0.0 | 0.0 | 0.00 | 0.07 | 0.07 | 84 | 1011.2 |
| 20260905091601 | 78 | 314 | 0.0 | 0.0 | 0.00 | 0.07 | 0.07 | 84 | 1011.1 |
| 20260905090059 | 78 | 314 | 0.0 | 0.0 | 0.00 | 0.07 | 0.07 | 84 | 1011.0 |
| 20260905084601 | 78 | 314 | 0.0 | 0.0 | 0.00 | 0.07 | 0.07 | 83 | 1011.1 |
| 20260905083056 | 78 | 314 | 1.0 | 2.0 | 0.00 | 0.07 | 0.07 | 83 | 1011.2 |
| 20260905081556 | 78 | 314 | 0.0 | 3.0 | 0.04 | 0.07 | 0.07 | 81 | 1011.2 |
| 20260905080054 | 78 | 347 | 0.0 | 2.0 | 0.07 | 0.07 | 0.07 | 79 | 1010.9 |
| 20260905074552 | 79 | 347 | 1.0 | 3.0 | 0.07 | 0.07 | 0.07 | 78 | 1010.9 |
| 20260905073051 | 79 | 136 | 3.0 | 10.0 | 0.07 | 0.07 | 0.07 | 75 | 1010.8 |
| 20260905071549 | 79 | 206 | 5.0 | 12.0 | 0.03 | 0.03 | 0.03 | 79 | 1011.5 |
| 20260905070053 | 79 | 282 | 0.0 | 0.0 | 0.00 | 0.00 | 0.00 | 80 | 1011.3 |
| 20260905064558 | 79 | 282 | 0.0 | 0.0 | 0.00 | 0.00 | 0.00 | 80 | 1011.5 |
| 20260905063042 | 79 | 282 | 0.0 | 0.0 | 0.00 | 0.00 | 0.00 | 79 | 1011.8 |
| 20260905061540 | 80 | 282 | 0.0 | 0.0 | 0.00 | 0.00 | 0.00 | 79 | 1012.0 |
| 20260905060041 | 80 | 282 | 0.0 | 0.0 | 0.00 | 0.00 | 0.00 | 78 | 1012.2 |
| 20260905054546 | 80 | 282 | 0.0 | 0.0 | 0.00 | 0.00 | 0.00 | 77 | 1012.3 |
| 20260905053037 | 80 | 282 | 0.0 | 0.0 | 0.00 | 0.00 | 0.00 | 77 | 1012.3 |
| 20260905051543 | 81 | 282 | 0.0 | 0.0 | 0.00 | 0.00 | 0.00 | 77 | 1012.2 |
| 20260905050032 | 81 | 282 | 0.0 | 0.0 | 0.00 | 0.00 | 0.00 | 76 | 1012.2 |
| 20260905044530 | 81 | 282 | 0.0 | 0.0 | 0.00 | 0.00 | 0.00 | 75 | 1012.2 |
| 20260905043034 | 82 | 282 | 0.0 | 1.0 | 0.00 | 0.00 | 0.00 | 75 | 1012.2 |
| 20260905041528 | 82 | 282 | 0.0 | 0.0 | 0.00 | 0.00 | 0.00 | 74 | 1012.3 |
| 20260905040026 | 82 | 282 | 0.0 | 1.0 | 0.00 | 0.00 | 0.00 | 73 | 1012.3 |
| 20260905034530 | 83 | 282 | 0.0 | 0.0 | 0.00 | 0.00 | 0.00 | 72 | 1012.2 |
| 20260905033026 | 83 | 282 | 0.0 | 1.0 | 0.00 | 0.00 | 0.00 | 71 | 1012.3 |
| 20260905031522 | 84 | 282 | 0.0 | 0.0 | 0.00 | 0.00 | 0.00 | 68 | 1012.3 |
| 20260905030021 | 85 | 282 | 0.0 | 0.0 | 0.00 | 0.00 | 0.00 | 67 | 1012.3 |
| 20260905024523 | 85 | 282 | 0.0 | 0.0 | 0.00 | 0.00 | 0.00 | 66 | 1012.3 |
| 20260905023021 | 86 | 282 | 0.0 | 1.0 | 0.00 | 0.00 | 0.00 | 66 | 1012.2 |
| 20260905021534 | 87 | 282 | 0.0 | 2.0 | 0.00 | 0.00 | 0.00 | 64 | 1012.2 |
| 20260905020024 | 87 | 282 | 0.0 | 0.0 | 0.00 | 0.00 | 0.00 | 62 | 1012.1 |
| 20260905014518 | 88 | 282 | 0.0 | 2.0 | 0.00 | 0.00 | 0.00 | 61 | 1012.1 |
| 20260905013018 | 89 | 282 | 0.0 | 1.0 | 0.00 | 0.00 | 0.00 | 59 | 1011.8 |
| 20260905011517 | 90 | 282 | 0.0 | 1.0 | 0.00 | 0.00 | 0.00 | 57 | 1011.7 |
| 20260905010020 | 91 | 282 | 0.0 | 2.0 | 0.00 | 0.00 | 0.00 | 56 | 1011.5 |
| 20260905004520 | 92 | 282 | 0.0 | 1.0 | 0.00 | 0.00 | 0.00 | 53 | 1011.5 |
| 20260905003020 | 93 | 282 | 0.0 | 1.0 | 0.00 | 0.00 | 0.00 | 50 | 1011.3 |
| 20260905001515 | 95 | 282 | 0.0 | 1.0 | 0.00 | 0.00 | 0.00 | 48 | 1011.2 |
| 20260905000015 | 96 | 282 | 0.0 | 1.0 | 0.00 | 0.00 | 0.00 | 46 | 1011.2 |
| 20260904234514 | 97 | 282 | 0.0 | 1.0 | 0.00 | 0.00 | 0.00 | 45 | 1011.2 |
| 20260904233013 | 97 | 282 | 1.0 | 5.0 | 0.00 | 0.00 | 0.00 | 43 | 1011.2 |
| 20260904231513 | 97 | 9 | 0.0 | 2.0 | 0.00 | 0.00 | 0.00 | 42 | 1011.3 |
| 20260904230011 | 98 | 5 | 1.0 | 4.0 | 0.00 | 0.00 | 0.00 | 41 | 1011.3 |
| 20260904224509 | 98 | 5 | 1.0 | 3.0 | 0.00 | 0.00 | 0.00 | 40 | 1011.4 |
| 20260904223008 | 99 | 13 | 0.0 | 4.0 | 0.00 | 0.00 | 0.00 | 39 | 1011.5 |
| 20260904221526 | 100 | 24 | 2.0 | 8.0 | 0.00 | 0.00 | 0.00 | 39 | 1011.6 |
| 20260904220007 | 100 | 30 | 2.0 | 5.0 | 0.00 | 0.00 | 0.00 | 39 | 1011.6 |
| 20260904214506 | 100 | 335 | 1.0 | 4.0 | 0.00 | 0.00 | 0.00 | 37 | 1011.6 |
| 20260904213012 | 100 | 323 | 2.0 | 5.0 | 0.00 | 0.00 | 0.00 | 39 | 1011.7 |
| 20260904211504 | 101 | 315 | 3.0 | 8.0 | 0.00 | 0.00 | 0.00 | 38 | 1011.8 |
| 20260904210002 | 101 | 241 | 3.0 | 6.0 | 0.00 | 0.00 | 0.00 | 38 | 1011.8 |
| 20260904204503 | 99 | 19 | 2.0 | 5.0 | 0.00 | 0.00 | 0.00 | 41 | 1011.9 |
| 20260904203100 | 99 | 346 | 2.0 | 9.0 | 0.00 | 0.00 | 0.00 | 40 | 1012.1 |
| 20260904201558 | 102 | 355 | 3.0 | 8.0 | 0.00 | 0.00 | 0.00 | 36 | 1012.3 |
| 20260904200122 | 102 | 296 | 3.0 | 8.0 | 0.00 | 0.00 | 0.00 | 36 | 1012.3 |